Tracking 26955 objects as of 3-Feb-2023
HD Live streaming from Space Station
objects crossing your sky now

DELTA 1 DEB

Track DELTA 1 DEB now!
10-day predictions


NORAD ID: 21492
Int'l Code: 1975-052FM
Perigee: 1,094.9 km
Apogee: 1,187.5 km
Inclination: 99.7 °
Period: 108.0 minutes
Semi major axis: 7512 km
RCS: 0.0109 m2 (small)
Launch date: June 12, 1975
Source: United States (US)
Launch site: AIR FORCE WESTERN TEST RANGE (AFWTR)

Note: This is SATELLITE DEBRIS
Your satellite tracking list
Your tracking list is empty




NASA's NSSDC Master Catalog

Two Line Element Set (TLE):
1 21492U 75052FM  23033.44353538  .00000070  00000-0  22489-3 0  9998
2 21492  99.6617 200.0071 0061651 290.0451  94.6557 13.33381649544682
Source of the keplerian elements: AFSPC